Retour au catalogue

TDRS 4

ActifCommunicationsGEO
NORAD 19883·PAYLOAD·🇺🇸 United States

Lancé Mar 13, 1989 depuis Cape Canaveral Space Force Station

Loading…

TLE

FraisSource: Space-Track

Époque: Sep 13, 2026, 18:28 UTC

1 19883U 89021B   26256.76989241  .00000002  00000-0  00000-0 0  9998
2 19883  12.8056 354.5149 0016385 308.9916  37.9248  0.98480504308915

Suivez TDRS 4 en temps réel avec AllMySat

Download on the App Store